星链-32175 (STARLINK-32175)

导读

STARLINK-32175是美国SpaceX公司星链(Starlink)低轨宽带通信星座的成员卫星,于2024年8月2日发射升空。它属于星链量产型卫星,采用平板设计搭配太阳电池阵,搭载Ku/Ka波段通信载荷,配备氪工质霍尔推进器,具备自主避撞能力,设计寿命5-7年,服役期满后会脱轨坠入大气层烧毁,主要服务全球宽带互联网接入业务。

基本信息
目录编号:
60339
目录名称:
STARLINK-32175
国际标识:
2024-136L
轨道中心:
EARTH
卫星名称:
星链-32175 (STARLINK-32175)
卫星全名:
星链-32175 (STARLINK-32175)
卫星状态:
在轨 (已飞行763 天)
发射日期:
2024-08-02 UTC
国别 :
美国 (US)
星等 :
--
轨道信息
数据来源 国际轨道数据
星历时间: 2026-09-03T23:40:12+0800
14小时前
查看轨道信息
半长轴: 6840.845km
偏心率: 0.0001384
轨道倾角: 53.160°
近地点辐角 96.480°
升交点赤经 328.190°
平近点角 263.636°
近地点: 461.761km
远地点: 463.655km
周期: 93.848分钟
每日圈数: 15.343986
详细信息
卫星平台:
Starlink v2.0 mini
运营商:
太空探索技术公司
运营商所在国:
美国
制造商(研发单位):
太空探索技术公司
制造商所在国:
美国
使用方式:
暂无
卫星简介
星链(Starlink)计划是由太空探索技术公司(SpaceX)提出的一个巨型低轨卫星互联网星座项目,计划在2019年至2024年间在太空搭建由约1.2万颗卫星组成的“星链”网络,其中1584颗将部署在地球上空550千米处的近地轨道,并从2020年开始工作。该卫星仍在工作。
2D轨道图
3D轨道图
轨道高度分析图
轨道倾角分析图
轨道综合分析图
查看轨道综合分析图
交会数据列表
事件ID 空间交会对象 最接近时刻(TCA) 交会距离 交会风险概率(CRP) 交会风险指数(CRI) 操作
CDM_260905-112001-213906-033921
SL-8 R/B (12139)
2026-09-05T
11:20:28+0000
1.247 km
极远距离
1.21456E-5 中风险 0.57
CDM_260904-221906-033906-395121
2026-09-04T
22:19:43+0000
1.581 km
极远距离
5.087409E-6 低风险 0.49
CDM_260904-042604-431106-033923
OBJECT B (44311)
2026-09-04T
04:26:09+0000
1.301 km
极远距离
3.672785E-6 低风险 0.46
CDM_260904-192906-033906-467921
2026-09-04T
19:29:01+0000
1.484 km
极远距离
3.368767E-6 低风险 0.46
CDM_260904-140605-315806-033922
2026-09-04T
14:06:55+0000
2.723 km
极远距离
1.203319E-6 低风险 0.37
CDM_260903-113205-315106-033922
2026-09-03T
11:32:28+0000
2.766 km
极远距离
1.179509E-6 低风险 0.36
CDM_260904-210206-033906-467921
2026-09-04T
21:02:49+0000
2.965 km
极远距离
7.439098E-7 极低风险 0.32